Year,Month,Day,Hour,Minute,Value (Times are PST for temperature in C)
2014,03,21,00,00,3.30
2014,03,21,00,01,3.20
2014,03,21,00,02,3.20
2014,03,21,00,03,3.20
2014,03,21,00,04,3.10
2014,03,21,00,05,3.10
2014,03,21,00,06,3.10
2014,03,21,00,07,3.10
2014,03,21,00,08,3.10
2014,03,21,00,09,2.90
2014,03,21,00,10,2.90
2014,03,21,00,11,2.90
2014,03,21,00,12,2.90
2014,03,21,00,13,2.90
2014,03,21,00,14,2.90
2014,03,21,00,15,2.90
2014,03,21,00,16,2.90
2014,03,21,00,17,3.00
2014,03,21,00,18,3.10
2014,03,21,00,19,3.10
2014,03,21,00,20,3.10
2014,03,21,00,21,3.10
2014,03,21,00,22,3.10
2014,03,21,00,23,3.00
2014,03,21,00,24,2.90
2014,03,21,00,25,2.90
2014,03,21,00,26,2.90
2014,03,21,00,27,2.90
2014,03,21,00,28,2.90
2014,03,21,00,29,2.90
2014,03,21,00,30,2.80
2014,03,21,00,31,2.80
2014,03,21,00,32,2.80
2014,03,21,00,33,2.80
2014,03,21,00,34,2.80
2014,03,21,00,35,2.70
2014,03,21,00,36,2.70
2014,03,21,00,37,2.70
2014,03,21,00,38,2.70
2014,03,21,00,39,2.70
2014,03,21,00,40,2.70
2014,03,21,00,41,2.70
2014,03,21,00,42,2.70
2014,03,21,00,43,2.70
2014,03,21,00,44,2.60
2014,03,21,00,45,2.60
2014,03,21,00,46,2.60
2014,03,21,00,47,2.60
2014,03,21,00,48,2.60
2014,03,21,00,49,2.60
2014,03,21,00,50,2.60
2014,03,21,00,51,2.60
2014,03,21,00,52,2.60
2014,03,21,00,53,2.60
2014,03,21,00,54,2.50
2014,03,21,00,55,2.50
2014,03,21,00,56,2.50
2014,03,21,00,57,2.50
2014,03,21,00,58,2.50
2014,03,21,00,59,2.50
2014,03,21,01,00,2.50
2014,03,21,01,01,2.50
2014,03,21,01,02,2.50
2014,03,21,01,03,2.60
2014,03,21,01,04,2.60
2014,03,21,01,05,2.60
2014,03,21,01,06,2.60
2014,03,21,01,07,2.60
2014,03,21,01,08,2.60
2014,03,21,01,09,2.60
2014,03,21,01,10,2.60
2014,03,21,01,11,2.60
2014,03,21,01,12,2.60
2014,03,21,01,13,2.50
2014,03,21,01,14,2.50
2014,03,21,01,15,2.40
2014,03,21,01,16,2.40
2014,03,21,01,17,2.30
2014,03,21,01,18,2.30
2014,03,21,01,19,2.30
2014,03,21,01,20,2.30
2014,03,21,01,21,2.30
2014,03,21,01,22,2.30
2014,03,21,01,23,2.30
2014,03,21,01,24,2.30
2014,03,21,01,25,2.40
2014,03,21,01,26,2.40
2014,03,21,01,27,2.40
2014,03,21,01,28,2.40
2014,03,21,01,29,2.40
2014,03,21,01,30,2.40
2014,03,21,01,31,2.40
2014,03,21,01,32,2.30
2014,03,21,01,33,2.30
2014,03,21,01,34,2.30
2014,03,21,01,35,2.30
2014,03,21,01,36,2.30
2014,03,21,01,37,2.20
2014,03,21,01,38,2.20
2014,03,21,01,39,2.20
2014,03,21,01,40,2.20
2014,03,21,01,41,2.20
2014,03,21,01,42,2.10
2014,03,21,01,43,2.10
2014,03,21,01,44,2.00
2014,03,21,01,45,2.00
2014,03,21,01,46,1.90
2014,03,21,01,47,1.90
2014,03,21,01,48,1.90
2014,03,21,01,49,1.90
2014,03,21,01,50,1.90
2014,03,21,01,51,1.90
2014,03,21,01,52,1.90
2014,03,21,01,53,1.90
2014,03,21,01,54,1.80
2014,03,21,01,55,1.90
2014,03,21,01,56,1.90
2014,03,21,01,57,1.90
2014,03,21,01,58,1.90
2014,03,21,01,59,1.90
2014,03,21,02,00,1.90
2014,03,21,02,01,1.80
2014,03,21,02,02,1.80
2014,03,21,02,03,1.80
2014,03,21,02,04,1.80
2014,03,21,02,05,1.80
2014,03,21,02,06,1.90
2014,03,21,02,07,1.90
2014,03,21,02,08,2.00
2014,03,21,02,09,1.90
2014,03,21,02,10,1.90
2014,03,21,02,11,1.80
2014,03,21,02,12,1.80
2014,03,21,02,13,1.80
2014,03,21,02,14,1.80
2014,03,21,02,15,1.80
2014,03,21,02,16,1.80
2014,03,21,02,17,1.80
2014,03,21,02,18,1.80
2014,03,21,02,19,1.80
2014,03,21,02,20,1.80
2014,03,21,02,21,1.80
2014,03,21,02,22,1.80
2014,03,21,02,23,1.90
2014,03,21,02,24,1.90
2014,03,21,02,25,1.90
2014,03,21,02,26,1.90
2014,03,21,02,27,1.80
2014,03,21,02,28,1.80
2014,03,21,02,29,1.70
2014,03,21,02,30,1.60
2014,03,21,02,31,1.60
2014,03,21,02,32,1.50
2014,03,21,02,33,1.50
2014,03,21,02,34,1.40
2014,03,21,02,35,1.40
2014,03,21,02,36,1.30
2014,03,21,02,37,1.30
2014,03,21,02,38,1.30
2014,03,21,02,39,1.30
2014,03,21,02,40,1.30
2014,03,21,02,41,1.30
2014,03,21,02,42,1.30
2014,03,21,02,43,1.30
2014,03,21,02,44,1.30
2014,03,21,02,45,1.30
2014,03,21,02,46,1.30
2014,03,21,02,47,1.20
2014,03,21,02,48,1.20
2014,03,21,02,49,1.20
2014,03,21,02,50,1.20
2014,03,21,02,51,1.30
2014,03,21,02,52,1.30
2014,03,21,02,53,1.30
2014,03,21,02,54,1.30
2014,03,21,02,55,1.30
2014,03,21,02,56,1.20
2014,03,21,02,57,1.20
2014,03,21,02,58,1.10
2014,03,21,02,59,1.00
2014,03,21,03,00,1.00
2014,03,21,03,01,0.90
2014,03,21,03,02,0.90
2014,03,21,03,03,0.80
2014,03,21,03,04,0.80
2014,03,21,03,05,0.80
2014,03,21,03,06,0.70
2014,03,21,03,07,0.70
2014,03,21,03,08,0.70
2014,03,21,03,09,0.70
2014,03,21,03,10,0.70
2014,03,21,03,11,0.70
2014,03,21,03,12,0.80
2014,03,21,03,13,0.80
2014,03,21,03,14,0.80
2014,03,21,03,15,0.80
2014,03,21,03,16,0.90
2014,03,21,03,17,0.90
2014,03,21,03,18,0.90
2014,03,21,03,19,0.90
2014,03,21,03,20,0.90
2014,03,21,03,21,0.80
2014,03,21,03,22,0.80
2014,03,21,03,23,0.80
2014,03,21,03,24,0.70
2014,03,21,03,25,0.70
2014,03,21,03,26,0.70
2014,03,21,03,27,0.60
2014,03,21,03,28,0.50
2014,03,21,03,29,0.50
2014,03,21,03,30,0.40
2014,03,21,03,31,0.40
2014,03,21,03,32,0.40
2014,03,21,03,33,0.40
2014,03,21,03,34,0.40
2014,03,21,03,35,0.40
2014,03,21,03,36,0.40
2014,03,21,03,37,0.30
2014,03,21,03,38,0.30
2014,03,21,03,39,0.30
2014,03,21,03,40,0.20
2014,03,21,03,41,0.20
2014,03,21,03,42,0.20
2014,03,21,03,43,0.20
2014,03,21,03,44,0.20
2014,03,21,03,45,0.10
2014,03,21,03,46,0.10
2014,03,21,03,47,0.10
2014,03,21,03,48,0.10
2014,03,21,03,49,0.20
2014,03,21,03,50,0.20
2014,03,21,03,51,0.20
2014,03,21,03,52,0.10
2014,03,21,03,53,0.20
2014,03,21,03,54,0.20
2014,03,21,03,55,0.20
2014,03,21,03,56,0.20
2014,03,21,03,57,0.20
2014,03,21,03,58,0.20
2014,03,21,03,59,0.20
2014,03,21,04,00,0.20
2014,03,21,04,01,0.20
2014,03,21,04,02,0.20
2014,03,21,04,03,0.20
2014,03,21,04,04,0.20
2014,03,21,04,05,0.30
2014,03,21,04,06,0.30
2014,03,21,04,07,0.30
2014,03,21,04,08,0.40
2014,03,21,04,09,0.40
2014,03,21,04,10,0.40
2014,03,21,04,11,0.40
2014,03,21,04,12,0.40
2014,03,21,04,13,0.40
2014,03,21,04,14,0.40
2014,03,21,04,15,0.40
2014,03,21,04,16,0.40
2014,03,21,04,17,0.40
2014,03,21,04,18,0.40
2014,03,21,04,19,0.40
2014,03,21,04,20,0.40
2014,03,21,04,21,0.40
2014,03,21,04,22,0.40
2014,03,21,04,23,0.40
2014,03,21,04,24,0.40
2014,03,21,04,25,0.40
2014,03,21,04,26,0.30
2014,03,21,04,27,0.30
2014,03,21,04,28,0.30
2014,03,21,04,29,0.30
2014,03,21,04,30,0.30
2014,03,21,04,31,0.30
2014,03,21,04,32,0.30
2014,03,21,04,33,0.30
2014,03,21,04,34,0.30
2014,03,21,04,35,0.30
2014,03,21,04,36,0.30
2014,03,21,04,37,0.30
2014,03,21,04,38,0.30
2014,03,21,04,39,0.30
2014,03,21,04,40,0.30
2014,03,21,04,41,0.20
2014,03,21,04,42,0.20
2014,03,21,04,43,0.20
2014,03,21,04,44,0.20
2014,03,21,04,45,0.20
2014,03,21,04,46,0.20
2014,03,21,04,47,0.20
2014,03,21,04,48,0.20
2014,03,21,04,49,0.20
2014,03,21,04,50,0.20
2014,03,21,04,51,0.20
2014,03,21,04,52,0.20
2014,03,21,04,53,0.20
2014,03,21,04,54,0.20
2014,03,21,04,55,0.20
2014,03,21,04,56,0.20
2014,03,21,04,57,0.20
2014,03,21,04,58,0.20
2014,03,21,04,59,0.20
2014,03,21,05,00,0.20
2014,03,21,05,01,0.20
2014,03,21,05,02,0.20
2014,03,21,05,03,0.20
2014,03,21,05,04,0.20
2014,03,21,05,05,0.20
2014,03,21,05,06,0.20
2014,03,21,05,07,0.30
2014,03,21,05,08,0.30
2014,03,21,05,09,0.30
2014,03,21,05,10,0.30
2014,03,21,05,11,0.40
2014,03,21,05,12,0.40
2014,03,21,05,13,0.40
2014,03,21,05,14,0.40
2014,03,21,05,15,0.40
2014,03,21,05,16,0.40
2014,03,21,05,17,0.40
2014,03,21,05,18,0.40
2014,03,21,05,19,0.50
2014,03,21,05,20,0.50
2014,03,21,05,21,0.50
2014,03,21,05,22,0.50
2014,03,21,05,23,0.60
2014,03,21,05,24,0.60
2014,03,21,05,25,0.60
2014,03,21,05,26,0.60
2014,03,21,05,27,0.60
2014,03,21,05,28,0.70
2014,03,21,05,29,0.70
2014,03,21,05,30,0.80
2014,03,21,05,31,0.80
2014,03,21,05,32,0.80
2014,03,21,05,33,0.80
2014,03,21,05,34,0.90
2014,03,21,05,35,1.00
2014,03,21,05,36,1.00
2014,03,21,05,37,1.10
2014,03,21,05,38,1.30
2014,03,21,05,39,1.40
2014,03,21,05,40,1.60
2014,03,21,05,41,1.70
2014,03,21,05,42,1.80
2014,03,21,05,43,2.00
2014,03,21,05,44,2.10
2014,03,21,05,45,2.20
2014,03,21,05,46,2.30
2014,03,21,05,47,2.40
2014,03,21,05,48,2.50
2014,03,21,05,49,2.50
2014,03,21,05,50,2.60
2014,03,21,05,51,2.70
2014,03,21,05,52,2.70
2014,03,21,05,53,2.70
2014,03,21,05,54,2.80
2014,03,21,05,55,2.80
2014,03,21,05,56,2.90
2014,03,21,05,57,2.90
2014,03,21,05,58,3.00
2014,03,21,05,59,3.10
2014,03,21,06,00,3.10
2014,03,21,06,01,3.10
2014,03,21,06,02,3.10
2014,03,21,06,03,3.20
2014,03,21,06,04,3.20
2014,03,21,06,05,3.20
2014,03,21,06,06,3.20
2014,03,21,06,07,3.20
2014,03,21,06,08,3.30
2014,03,21,06,09,3.30
2014,03,21,06,10,3.30
2014,03,21,06,11,3.30
2014,03,21,06,12,3.30
2014,03,21,06,13,3.30
2014,03,21,06,14,3.30
2014,03,21,06,15,3.30
2014,03,21,06,16,3.30
2014,03,21,06,17,3.30
2014,03,21,06,18,3.30
2014,03,21,06,19,3.30
2014,03,21,06,20,3.30
2014,03,21,06,21,3.30
2014,03,21,06,22,3.30
2014,03,21,06,23,3.30
2014,03,21,06,24,3.30
2014,03,21,06,25,3.30
2014,03,21,06,26,3.30
2014,03,21,06,27,3.30
2014,03,21,06,28,3.30
2014,03,21,06,29,3.30
2014,03,21,06,30,3.30
2014,03,21,06,31,3.30
2014,03,21,06,32,3.30
2014,03,21,06,33,3.30
2014,03,21,06,34,3.30
2014,03,21,06,35,3.30
2014,03,21,06,36,3.20
2014,03,21,06,37,3.20
2014,03,21,06,38,3.10
2014,03,21,06,39,3.00
2014,03,21,06,40,2.90
2014,03,21,06,41,2.70
2014,03,21,06,42,2.70
2014,03,21,06,43,2.50
2014,03,21,06,44,2.40
2014,03,21,06,45,2.30
2014,03,21,06,46,2.20
2014,03,21,06,47,2.20
2014,03,21,06,48,2.10
2014,03,21,06,49,2.10
2014,03,21,06,50,2.00
2014,03,21,06,51,2.00
2014,03,21,06,52,1.90
2014,03,21,06,53,1.90
2014,03,21,06,54,1.90
2014,03,21,06,55,1.80
2014,03,21,06,56,1.80
2014,03,21,06,57,1.80
2014,03,21,06,58,1.80
2014,03,21,06,59,1.80
2014,03,21,07,00,1.80
2014,03,21,07,01,1.80
2014,03,21,07,02,1.80
2014,03,21,07,03,1.80
2014,03,21,07,04,1.80
2014,03,21,07,05,1.80
2014,03,21,07,06,1.80
2014,03,21,07,07,1.80
2014,03,21,07,08,1.80
2014,03,21,07,09,1.70
2014,03,21,07,10,1.70
2014,03,21,07,11,1.70
2014,03,21,07,12,1.70
2014,03,21,07,13,1.70
2014,03,21,07,14,1.60
2014,03,21,07,15,1.60
2014,03,21,07,16,1.60
2014,03,21,07,17,1.50
2014,03,21,07,18,1.50
2014,03,21,07,19,1.50
2014,03,21,07,20,1.50
2014,03,21,07,21,1.40
2014,03,21,07,22,1.40
2014,03,21,07,23,1.40
2014,03,21,07,24,1.40
2014,03,21,07,25,1.30
2014,03,21,07,26,1.30
2014,03,21,07,27,1.30
2014,03,21,07,28,1.30
2014,03,21,07,29,1.30
2014,03,21,07,30,1.30
2014,03,21,07,31,1.30
2014,03,21,07,32,1.30
2014,03,21,07,33,1.30
2014,03,21,07,34,1.30
2014,03,21,07,35,1.30
2014,03,21,07,36,1.30
2014,03,21,07,37,1.40
2014,03,21,07,38,1.40
2014,03,21,07,39,1.50
2014,03,21,07,40,1.50
2014,03,21,07,41,1.50
2014,03,21,07,42,1.60
2014,03,21,07,43,1.60
2014,03,21,07,44,1.60
2014,03,21,07,45,1.70
2014,03,21,07,46,1.70
2014,03,21,07,47,1.70
2014,03,21,07,48,1.70
2014,03,21,07,49,1.70
2014,03,21,07,50,1.80
2014,03,21,07,51,1.80
2014,03,21,07,52,1.80
2014,03,21,07,53,1.80
2014,03,21,07,54,1.80
2014,03,21,07,55,1.80
2014,03,21,07,56,1.80
2014,03,21,07,57,1.90
2014,03,21,07,58,1.90
2014,03,21,07,59,2.00
2014,03,21,08,00,2.10
2014,03,21,08,01,2.10
2014,03,21,08,02,2.20
2014,03,21,08,03,2.20
2014,03,21,08,04,2.20
2014,03,21,08,05,2.20
2014,03,21,08,06,2.20
2014,03,21,08,07,2.20
2014,03,21,08,08,2.20
2014,03,21,08,09,2.20
2014,03,21,08,10,2.30
2014,03,21,08,11,2.30
2014,03,21,08,12,2.40
2014,03,21,08,13,2.40
2014,03,21,08,14,2.50
2014,03,21,08,15,2.50
2014,03,21,08,16,2.60
2014,03,21,08,17,2.70
2014,03,21,08,18,2.70
2014,03,21,08,19,2.80
2014,03,21,08,20,2.90
2014,03,21,08,21,2.90
2014,03,21,08,22,3.00
2014,03,21,08,23,3.10
2014,03,21,08,24,3.20
2014,03,21,08,25,3.20
2014,03,21,08,26,3.30
2014,03,21,08,27,3.30
2014,03,21,08,28,3.40
2014,03,21,08,29,3.50
2014,03,21,08,30,3.60
2014,03,21,08,31,3.70
2014,03,21,08,32,3.80
2014,03,21,08,33,3.80
2014,03,21,08,34,3.90
2014,03,21,08,35,3.90
2014,03,21,08,36,4.00
2014,03,21,08,37,4.00
2014,03,21,08,38,4.10
2014,03,21,08,39,4.20
2014,03,21,08,40,4.20
2014,03,21,08,41,4.20
2014,03,21,08,42,4.30
2014,03,21,08,43,4.30
2014,03,21,08,44,4.40
2014,03,21,08,45,4.40
2014,03,21,08,46,4.40
2014,03,21,08,47,4.50
2014,03,21,08,48,4.50
2014,03,21,08,49,4.50
2014,03,21,08,50,4.50
2014,03,21,08,51,4.50
2014,03,21,08,52,4.60
2014,03,21,08,53,4.60
2014,03,21,08,54,4.60
2014,03,21,08,55,4.60
2014,03,21,08,56,4.60
2014,03,21,08,57,4.60
2014,03,21,08,58,4.70
2014,03,21,08,59,4.70
2014,03,21,09,00,4.70
2014,03,21,09,01,4.80
2014,03,21,09,02,4.80
2014,03,21,09,03,4.80
2014,03,21,09,04,4.90
2014,03,21,09,05,4.90
2014,03,21,09,06,4.90
2014,03,21,09,07,4.90
2014,03,21,09,08,4.90
2014,03,21,09,09,4.90
2014,03,21,09,10,4.90
2014,03,21,09,11,4.90
2014,03,21,09,12,4.90
2014,03,21,09,13,4.90
2014,03,21,09,14,5.00
2014,03,21,09,15,5.10
2014,03,21,09,16,5.10
2014,03,21,09,17,5.10
2014,03,21,09,18,5.10
2014,03,21,09,19,5.10
2014,03,21,09,20,5.10
2014,03,21,09,21,5.20
2014,03,21,09,22,5.20
2014,03,21,09,23,5.30
2014,03,21,09,24,5.30
2014,03,21,09,25,5.30
2014,03,21,09,26,5.30
2014,03,21,09,27,5.30
2014,03,21,09,28,5.30
2014,03,21,09,29,5.30
2014,03,21,09,30,5.30
2014,03,21,09,31,5.30
2014,03,21,09,32,5.30
2014,03,21,09,33,5.30
2014,03,21,09,34,5.30
2014,03,21,09,35,5.40
2014,03,21,09,36,5.40
2014,03,21,09,37,5.40
2014,03,21,09,38,5.40
2014,03,21,09,39,5.40
2014,03,21,09,40,5.40
2014,03,21,09,41,5.40
2014,03,21,09,42,5.40
2014,03,21,09,43,5.30
2014,03,21,09,44,5.30
2014,03,21,09,45,5.30
2014,03,21,09,46,5.30
2014,03,21,09,47,5.30
2014,03,21,09,48,5.30
2014,03,21,09,49,5.30
2014,03,21,09,50,5.30
2014,03,21,09,51,5.30
2014,03,21,09,52,5.30
2014,03,21,09,53,5.30
2014,03,21,09,54,5.30
2014,03,21,09,55,5.30
2014,03,21,09,56,5.30
2014,03,21,09,57,5.30
2014,03,21,09,58,5.30
2014,03,21,09,59,5.30
2014,03,21,10,00,5.30
2014,03,21,10,01,5.30
2014,03,21,10,02,5.30
2014,03,21,10,03,5.30
2014,03,21,10,04,5.30
2014,03,21,10,05,5.30
2014,03,21,10,06,5.20
2014,03,21,10,07,5.20
2014,03,21,10,08,5.20
2014,03,21,10,09,5.20
2014,03,21,10,10,5.20
2014,03,21,10,11,5.20
2014,03,21,10,12,5.20
2014,03,21,10,13,5.20
2014,03,21,10,14,5.20
2014,03,21,10,15,5.20
2014,03,21,10,16,5.20
2014,03,21,10,17,5.20
2014,03,21,10,18,5.30
2014,03,21,10,19,5.30
2014,03,21,10,20,5.30
2014,03,21,10,21,5.30
2014,03,21,10,22,5.30
2014,03,21,10,23,5.20
2014,03,21,10,24,5.20
2014,03,21,10,25,5.20
2014,03,21,10,26,5.20
2014,03,21,10,27,5.20
2014,03,21,10,28,5.20
2014,03,21,10,29,5.20
2014,03,21,10,30,5.20
2014,03,21,10,31,5.20
2014,03,21,10,32,5.20
2014,03,21,10,33,5.20
2014,03,21,10,34,5.20
2014,03,21,10,35,5.20
2014,03,21,10,36,5.20
2014,03,21,10,37,5.20
2014,03,21,10,38,5.30
2014,03,21,10,39,5.30
2014,03,21,10,40,5.30
2014,03,21,10,41,5.30
2014,03,21,10,42,5.30
2014,03,21,10,43,5.40
2014,03,21,10,44,5.40
2014,03,21,10,45,5.40
2014,03,21,10,46,5.40
2014,03,21,10,47,5.50
2014,03,21,10,48,5.50
2014,03,21,10,49,5.60
2014,03,21,10,50,5.60
2014,03,21,10,51,5.70
2014,03,21,10,52,5.70
2014,03,21,10,53,5.70
2014,03,21,10,54,5.80
2014,03,21,10,55,5.80
2014,03,21,10,56,5.80
2014,03,21,10,57,5.80
2014,03,21,10,58,5.80
2014,03,21,10,59,5.80
2014,03,21,11,00,5.90
2014,03,21,11,01,5.90
2014,03,21,11,02,5.90
2014,03,21,11,03,5.90
2014,03,21,11,04,5.90
2014,03,21,11,05,5.90
2014,03,21,11,06,6.00
2014,03,21,11,07,6.00
2014,03,21,11,08,6.00
2014,03,21,11,09,6.10
2014,03,21,11,10,6.20
2014,03,21,11,11,6.20
2014,03,21,11,12,6.30
2014,03,21,11,13,6.30
2014,03,21,11,14,6.40
2014,03,21,11,15,6.50
2014,03,21,11,16,6.60
2014,03,21,11,17,6.60
2014,03,21,11,18,6.60
2014,03,21,11,19,6.60
2014,03,21,11,20,6.60
2014,03,21,11,21,6.60
2014,03,21,11,22,6.60
2014,03,21,11,23,6.60
2014,03,21,11,24,6.60
2014,03,21,11,25,6.60
2014,03,21,11,26,6.60
2014,03,21,11,27,6.60
2014,03,21,11,28,6.60
2014,03,21,11,29,6.60
2014,03,21,11,30,6.60
2014,03,21,11,31,6.60
2014,03,21,11,32,6.60
2014,03,21,11,33,6.70
2014,03,21,11,34,6.60
2014,03,21,11,35,6.60
2014,03,21,11,36,6.60
2014,03,21,11,37,6.60
2014,03,21,11,38,6.60
2014,03,21,11,39,6.60
2014,03,21,11,40,6.60
2014,03,21,11,41,6.60
2014,03,21,11,42,6.70
2014,03,21,11,43,6.70
2014,03,21,11,44,6.70
2014,03,21,11,45,6.80
2014,03,21,11,46,6.80
2014,03,21,11,47,6.80
2014,03,21,11,48,6.80
2014,03,21,11,49,6.80
2014,03,21,11,50,6.80
2014,03,21,11,51,6.80
2014,03,21,11,52,6.80
2014,03,21,11,53,6.80
2014,03,21,11,54,6.80
2014,03,21,11,55,6.80
2014,03,21,11,56,6.80
2014,03,21,11,57,6.80
2014,03,21,11,58,6.80
2014,03,21,11,59,6.80
2014,03,21,12,00,6.90
2014,03,21,12,01,6.90
2014,03,21,12,02,6.80
2014,03,21,12,03,6.80
2014,03,21,12,04,6.90
2014,03,21,12,05,6.90
2014,03,21,12,06,6.90
2014,03,21,12,07,6.90
2014,03,21,12,08,6.90
2014,03,21,12,09,6.90
2014,03,21,12,10,7.00
2014,03,21,12,11,7.00
2014,03,21,12,12,7.00
2014,03,21,12,13,7.10
2014,03,21,12,14,7.10
2014,03,21,12,15,7.20
2014,03,21,12,16,7.20
2014,03,21,12,17,7.20
2014,03,21,12,18,7.30
2014,03,21,12,19,7.30
2014,03,21,12,20,7.30
2014,03,21,12,21,7.20
2014,03,21,12,22,7.20
2014,03,21,12,23,7.10
2014,03,21,12,24,7.00
2014,03,21,12,25,7.00
2014,03,21,12,26,7.00
2014,03,21,12,27,7.00
2014,03,21,12,28,7.10
2014,03,21,12,29,7.20
2014,03,21,12,30,7.10
2014,03,21,12,31,7.20
2014,03,21,12,32,7.20
2014,03,21,12,33,7.20
2014,03,21,12,34,7.10
2014,03,21,12,35,7.10
2014,03,21,12,36,7.10
2014,03,21,12,37,7.10
2014,03,21,12,38,7.10
2014,03,21,12,39,7.10
2014,03,21,12,40,7.20
2014,03,21,12,41,7.30
2014,03,21,12,42,7.30
2014,03,21,12,43,7.30
2014,03,21,12,44,7.30
2014,03,21,12,45,7.30
2014,03,21,12,46,7.30
2014,03,21,12,47,7.30
2014,03,21,12,48,7.30
2014,03,21,12,49,7.30
2014,03,21,12,50,7.30
2014,03,21,12,51,7.30
2014,03,21,12,52,7.40
2014,03,21,12,53,7.50
2014,03,21,12,54,7.50
2014,03,21,12,55,7.50
2014,03,21,12,56,7.50
2014,03,21,12,57,7.50
2014,03,21,12,58,7.60
2014,03,21,12,59,7.70
2014,03,21,13,00,7.70
2014,03,21,13,01,7.80
2014,03,21,13,02,7.80
2014,03,21,13,03,7.80
2014,03,21,13,04,7.80
2014,03,21,13,05,7.60
2014,03,21,13,06,7.50
2014,03,21,13,07,7.40
2014,03,21,13,08,7.30
2014,03,21,13,09,7.30
2014,03,21,13,10,7.30
2014,03,21,13,11,7.30
2014,03,21,13,12,7.40
2014,03,21,13,13,7.50
2014,03,21,13,14,7.60
2014,03,21,13,15,7.70
2014,03,21,13,16,7.80
2014,03,21,13,17,7.80
2014,03,21,13,18,7.80
2014,03,21,13,19,7.80
2014,03,21,13,20,7.80
2014,03,21,13,21,7.90
2014,03,21,13,22,7.90
2014,03,21,13,23,8.00
2014,03,21,13,24,7.90
2014,03,21,13,25,7.90
2014,03,21,13,26,7.80
2014,03,21,13,27,7.60
2014,03,21,13,28,7.60
2014,03,21,13,29,7.60
2014,03,21,13,30,7.50
2014,03,21,13,31,7.50
2014,03,21,13,32,7.40
2014,03,21,13,33,7.40
2014,03,21,13,34,7.40
2014,03,21,13,35,7.40
2014,03,21,13,36,7.50
2014,03,21,13,37,7.60
2014,03,21,13,38,7.60
2014,03,21,13,39,7.70
2014,03,21,13,40,7.80
2014,03,21,13,41,7.80
2014,03,21,13,42,7.90
2014,03,21,13,43,7.90
2014,03,21,13,44,7.80
2014,03,21,13,45,7.80
2014,03,21,13,46,7.80
2014,03,21,13,47,7.70
2014,03,21,13,48,7.70
2014,03,21,13,49,7.80
2014,03,21,13,50,7.80
2014,03,21,13,51,7.80
2014,03,21,13,52,7.90
2014,03,21,13,53,8.10
2014,03,21,13,54,8.10
2014,03,21,13,55,8.10
2014,03,21,13,56,8.10
2014,03,21,13,57,8.10
2014,03,21,13,58,8.00
2014,03,21,13,59,8.00
2014,03,21,14,00,8.00
2014,03,21,14,01,8.10
2014,03,21,14,02,8.10
2014,03,21,14,03,8.20
2014,03,21,14,04,8.20
2014,03,21,14,05,8.20
2014,03,21,14,06,8.20
2014,03,21,14,07,8.20
2014,03,21,14,08,8.10
2014,03,21,14,09,8.10
2014,03,21,14,10,8.20
2014,03,21,14,11,8.20
2014,03,21,14,12,8.20
2014,03,21,14,13,8.30
2014,03,21,14,14,8.40
2014,03,21,14,15,8.40
2014,03,21,14,16,8.40
2014,03,21,14,17,8.50
2014,03,21,14,18,8.50
2014,03,21,14,19,8.50
2014,03,21,14,20,8.50
2014,03,21,14,21,8.70
2014,03,21,14,22,8.70
2014,03,21,14,23,8.70
2014,03,21,14,24,8.70
2014,03,21,14,25,8.70
2014,03,21,14,26,8.60
2014,03,21,14,27,8.50
2014,03,21,14,28,8.50
2014,03,21,14,29,8.40
2014,03,21,14,30,8.40
2014,03,21,14,31,8.40
2014,03,21,14,32,8.40
2014,03,21,14,33,8.40
2014,03,21,14,34,8.40
2014,03,21,14,35,8.50
2014,03,21,14,36,8.50
2014,03,21,14,37,8.60
2014,03,21,14,38,8.60
2014,03,21,14,39,8.60
2014,03,21,14,40,8.70
2014,03,21,14,41,8.60
2014,03,21,14,42,8.60
2014,03,21,14,43,8.60
2014,03,21,14,44,8.50
2014,03,21,14,45,8.50
2014,03,21,14,46,8.50
2014,03,21,14,47,8.50
2014,03,21,14,48,8.40
2014,03,21,14,49,8.40
2014,03,21,14,50,8.50
2014,03,21,14,51,8.50
2014,03,21,14,52,8.60
2014,03,21,14,53,8.60
2014,03,21,14,54,8.70
2014,03,21,14,55,8.70
2014,03,21,14,56,8.70
2014,03,21,14,57,8.70
2014,03,21,14,58,8.70
2014,03,21,14,59,8.70
2014,03,21,15,00,8.70
2014,03,21,15,01,8.70
2014,03,21,15,02,8.70
2014,03,21,15,03,8.70
2014,03,21,15,04,8.80
2014,03,21,15,05,8.80
2014,03,21,15,06,8.90
2014,03,21,15,07,8.90
2014,03,21,15,08,8.90
2014,03,21,15,09,8.90
2014,03,21,15,10,8.90
2014,03,21,15,11,8.90
2014,03,21,15,12,8.90
2014,03,21,15,13,9.00
2014,03,21,15,14,9.00
2014,03,21,15,15,8.90
2014,03,21,15,16,9.00
2014,03,21,15,17,9.00
2014,03,21,15,18,8.90
2014,03,21,15,19,8.90
2014,03,21,15,20,8.90
2014,03,21,15,21,8.90
2014,03,21,15,22,9.00
2014,03,21,15,23,9.10
2014,03,21,15,24,9.00
2014,03,21,15,25,9.10
2014,03,21,15,26,9.10
2014,03,21,15,27,9.00
2014,03,21,15,28,9.00
2014,03,21,15,29,8.90
2014,03,21,15,30,8.80
2014,03,21,15,31,8.80
2014,03,21,15,32,8.70
2014,03,21,15,33,8.70
2014,03,21,15,34,8.70
2014,03,21,15,35,8.80
2014,03,21,15,36,8.90
2014,03,21,15,37,8.90
2014,03,21,15,38,9.00
2014,03,21,15,39,9.00
2014,03,21,15,40,9.10
2014,03,21,15,41,9.10
2014,03,21,15,42,9.10
2014,03,21,15,43,9.20
2014,03,21,15,44,9.20
2014,03,21,15,45,9.20
2014,03,21,15,46,9.20
2014,03,21,15,47,9.20
2014,03,21,15,48,9.20
2014,03,21,15,49,9.10
2014,03,21,15,50,9.10
2014,03,21,15,51,9.10
2014,03,21,15,52,9.00
2014,03,21,15,53,9.00
2014,03,21,15,54,9.10
2014,03,21,15,55,9.10
2014,03,21,15,56,9.20
2014,03,21,15,57,9.20
2014,03,21,15,58,9.20
2014,03,21,15,59,9.20
2014,03,21,16,00,9.20
2014,03,21,16,01,9.20
2014,03,21,16,02,9.20
2014,03,21,16,03,9.20
2014,03,21,16,04,9.20
2014,03,21,16,05,9.20
2014,03,21,16,06,9.20
2014,03,21,16,07,9.20
2014,03,21,16,08,9.20
2014,03,21,16,09,9.20
2014,03,21,16,10,9.10
2014,03,21,16,11,9.10
2014,03,21,16,12,9.10
2014,03,21,16,13,9.10
2014,03,21,16,14,9.10
2014,03,21,16,15,9.10
2014,03,21,16,16,9.10
2014,03,21,16,17,9.10
2014,03,21,16,18,9.10
2014,03,21,16,19,9.10
2014,03,21,16,20,9.00
2014,03,21,16,21,9.10
2014,03,21,16,22,9.20
2014,03,21,16,23,9.20
2014,03,21,16,24,9.20
2014,03,21,16,25,9.20
2014,03,21,16,26,9.20
2014,03,21,16,27,9.20
2014,03,21,16,28,9.20
2014,03,21,16,29,9.30
2014,03,21,16,30,9.30
2014,03,21,16,31,9.30
2014,03,21,16,32,9.30
2014,03,21,16,33,9.20
2014,03,21,16,34,9.10
2014,03,21,16,35,9.00
2014,03,21,16,36,8.90
2014,03,21,16,37,8.90
2014,03,21,16,38,8.80
2014,03,21,16,39,8.80
2014,03,21,16,40,8.90
2014,03,21,16,41,8.90
2014,03,21,16,42,9.00
2014,03,21,16,43,8.90
2014,03,21,16,44,8.90
2014,03,21,16,45,8.90
2014,03,21,16,46,8.90
2014,03,21,16,47,8.90
2014,03,21,16,48,9.00
2014,03,21,16,49,9.10
2014,03,21,16,50,9.20
2014,03,21,16,51,9.20
2014,03,21,16,52,9.20
2014,03,21,16,53,9.20
2014,03,21,16,54,9.20
2014,03,21,16,55,9.20
2014,03,21,16,56,9.20
2014,03,21,16,57,9.20
2014,03,21,16,58,9.10
2014,03,21,16,59,9.10
2014,03,21,17,00,9.10
2014,03,21,17,01,9.10
2014,03,21,17,02,9.10
2014,03,21,17,03,9.10
2014,03,21,17,04,9.10
2014,03,21,17,05,9.10
2014,03,21,17,06,9.00
2014,03,21,17,07,9.00
2014,03,21,17,08,9.00
2014,03,21,17,09,9.00
2014,03,21,17,10,9.00
2014,03,21,17,11,9.00
2014,03,21,17,12,9.00
2014,03,21,17,13,9.00
2014,03,21,17,14,9.10
2014,03,21,17,15,9.10
2014,03,21,17,16,9.20
2014,03,21,17,17,9.20
2014,03,21,17,18,9.20
2014,03,21,17,19,9.10
2014,03,21,17,20,9.00
2014,03,21,17,21,8.90
2014,03,21,17,22,8.80
2014,03,21,17,23,8.80
2014,03,21,17,24,8.80
2014,03,21,17,25,8.80
2014,03,21,17,26,8.80
2014,03,21,17,27,8.80
2014,03,21,17,28,8.80
2014,03,21,17,29,8.80
2014,03,21,17,30,8.80
2014,03,21,17,31,8.70
2014,03,21,17,32,8.70
2014,03,21,17,33,8.70
2014,03,21,17,34,8.70
2014,03,21,17,35,8.80
2014,03,21,17,36,8.80
2014,03,21,17,37,8.80
2014,03,21,17,38,8.90
2014,03,21,17,39,9.00
2014,03,21,17,40,9.00
2014,03,21,17,41,9.10
2014,03,21,17,42,9.00
2014,03,21,17,43,9.00
2014,03,21,17,44,9.00
2014,03,21,17,45,9.00
2014,03,21,17,46,8.90
2014,03,21,17,47,8.90
2014,03,21,17,48,8.90
2014,03,21,17,49,8.90
2014,03,21,17,50,8.90
2014,03,21,17,51,8.90
2014,03,21,17,52,8.90
2014,03,21,17,53,8.90
2014,03,21,17,54,9.00
2014,03,21,17,55,9.00
2014,03,21,17,56,9.00
2014,03,21,17,57,9.10
2014,03,21,17,58,9.20
2014,03,21,17,59,9.20
2014,03,21,18,00,9.20
2014,03,21,18,01,9.20
2014,03,21,18,02,9.20
2014,03,21,18,03,9.20
2014,03,21,18,04,9.20
2014,03,21,18,05,9.20
2014,03,21,18,06,9.20